This is the latest recevied weather packets stored in our database for station/object KA1JKB. If no packets are shown the sender has not sent any weather packets the latest 10 day(s).
| Time | Temp. | Humidity | Pressure | Rain* | Wind** | Luminosity | Snow |
|---|---|---|---|---|---|---|---|
| 1787920056 | 16.67° C | 99% | 1019.2 hPa | 0 mm | - | 132 W/m² | - |
| 1787919755 | 15.56° C | 99% | 1019.3 hPa | 0 mm | - | 112 W/m² | - |
| 1787919454 | 15.56° C | 99% | 1019.2 hPa | 0 mm | - | 72 W/m² | - |
| 1787919150 | 15.56° C | 99% | 1019.2 hPa | 0 mm | - | 56 W/m² | - |
| 1787918850 | 15.56° C | 99% | 1019.1 hPa | 0 mm | - | 50 W/m² | - |
| 1787918545 | 14.44° C | 99% | 1019.1 hPa | 0 mm | - | 50 W/m² | - |
| 1787918243 | 13.89° C | 99% | 1018.9 hPa | 0 mm | - | 44 W/m² | - |
| 1787917938 | 13.33° C | 99% | 1019.1 hPa | 0 mm | - | 40 W/m² | - |
| 1787917633 | 12.78° C | 99% | 1018.9 hPa | 0 mm | - | 36 W/m² | - |
| 1787917330 | 11.11° C | 99% | 1019 hPa | 0 mm | - | 32 W/m² | - |
| 1787917029 | 9.44° C | 99% | 1018.9 hPa | 0 mm | - | 24 W/m² | - |
| 1787916725 | 8.89° C | 99% | 1018.8 hPa | 0 mm | - | 20 W/m² | - |
| 1787916419 | 8.33° C | 99% | 1018.4 hPa | 0 mm | - | 17 W/m² | - |
| 1787916115 | 8.33° C | 99% | 1018.6 hPa | 0 mm | - | 14 W/m² | - |
| 1787915810 | 8.33° C | 99% | 1018.7 hPa | 0 mm | - | 12 W/m² | - |
| 1787915509 | 8.33° C | 99% | 1018.4 hPa | 0 mm | - | 7 W/m² | - |
| 1787915205 | 8.33° C | 99% | 1018.4 hPa | 0 mm | - | 6 W/m² | - |
| 1787914904 | 8.33° C | 99% | 1018.3 hPa | 0 mm | - | 3 W/m² | - |
| 1787914602 | 8.33° C | 99% | 1018.1 hPa | 0 mm | - | 1 W/m² | - |
| 1787914298 | 8.33° C | 99% | 1018.1 hPa | 0 mm | - | 0 W/m² | - |
| 1787913997 | 8.33° C | 99% | 1018.2 hPa | 0 mm | - | 0 W/m² | - |
| 1787913697 | 8.89° C | 99% | 1018.1 hPa | 0 mm | - | 0 W/m² | - |
| 1787913392 | 8.89° C | 99% | 1017.6 hPa | 0 mm | - | 0 W/m² | - |
| 1787913086 | 8.89° C | 99% | 1017.9 hPa | 0 mm | - | 0 W/m² | - |
| 1787912785 | 8.89° C | 99% | 1017.8 hPa | 0 mm | - | 0 W/m² | - |
* Rain latest hour (hover to see other rain measurements)
** Current wind speed in m/s (hover to see current wind gust speed)